Weather History for KAPF - March, 2011

Change the Weather History Date:

Friday, March 11, 2011

  Actual Average Record
Temperature  
Mean Temperature 60 °F 70 °F  
Max Temperature 66 °F 80 °F 90 °F (1977)
Min Temperature 53 °F 60 °F 41 °F (1961)
Degree Days  
Heating Degree Days 5 1  
Month to date heating degree days 5 11  
Since 1 July heating degree days 377 244  
Cooling Degree Days 0 5  
Month to date cooling degree days 62 55  
Year to date cooling degree days 264 246  
Growing Degree Days 8 (Base 50)    
Moisture  
Dew Point 45 °F    
Average Humidity 62    
Maximum Humidity 72    
Minimum Humidity 51    
Precipitation  
Precipitation 0.00 in 0.08 in 0.52 in (1958)
Month to date precipitation 1.01 0.77  
Year to date precipitation 2.68 4.72  
Snow  
Snow 0.00 in - - ()
Month to date snowfall 0.0  
Since 1 July snowfall 0.0  
Snow Depth 0.00 in    
Sea Level Pressure  
Sea Level Pressure 30.18 in    
Wind  
Wind Speed 8 mph (North)    
Max Wind Speed 20 mph    
Max Gust Speed 26 mph    
Visibility 10 miles    
Events      
T = Trace of Precipitation, MM = Missing Value Source: NWS Daily Summary

Daily Weather History Graph

Daily Weather History Graph

Search for Another Location

Airport or City:

Trip Planner

Search our weather history database for the weather conditions in past years. The results will help you decide how hot, cold, wet, or windy it might be!

Date:

Astronomy

Mar. 11, 2011 Rise Set
Actual Time 6:40 AM EST 6:33 PM EST
Civil Twilight 6:17 AM EST 6:56 PM EST
Nautical Twilight 5:51 AM EST 7:23 PM EST
Astronomical Twilight 5:24 AM EST 7:50 PM EST
Moon 10:34 AM EST (3/11) No Moon Set
Length of Visible Light 12h 39m
Length of Day
11h 52m
Waxing Crescent, 37% of the Moon is Illuminated
Mar 11
Waxing Crescent
Mar 12
First Quarter
Mar 19
Full
Mar 26
Last Quarter
Apr 3
New

Hourly Weather History & Observations

Time (EST) Temp. Dew Point Humidity Pressure Visibility Wind Dir Wind Speed Gust Speed Precip Events Conditions
12:53 AM 57.0 °F 48.9 °F 74% 30.12 in 10.0 mi North 4.6 mph - N/A   Clear
1:53 AM 57.0 °F 48.0 °F 72% 30.13 in 10.0 mi North 8.1 mph - N/A   Clear
2:53 AM 57.9 °F 46.9 °F 67% 30.12 in 10.0 mi North 6.9 mph - N/A   Clear
3:53 AM 55.0 °F 46.0 °F 72% 30.13 in 10.0 mi NNE 4.6 mph - N/A   Clear
4:53 AM 53.1 °F 45.0 °F 74% 30.14 in 10.0 mi NNE 5.8 mph - N/A   Partly Cloudy
5:53 AM 54.0 °F 42.1 °F 64% 30.15 in 10.0 mi NNE 9.2 mph - N/A   Overcast
6:53 AM 53.1 °F 41.0 °F 64% 30.17 in 10.0 mi NE 8.1 mph - N/A   Scattered Clouds
7:53 AM 55.0 °F 39.9 °F 57% 30.20 in 10.0 mi NNE 12.7 mph 21.9 mph N/A   Mostly Cloudy
8:53 AM 55.9 °F 41.0 °F 57% 30.22 in 10.0 mi NNE 12.7 mph 18.4 mph N/A   Partly Cloudy
9:53 AM 61.0 °F 43.0 °F 52% 30.24 in 10.0 mi North 8.1 mph - N/A   Clear
10:53 AM 63.0 °F 45.0 °F 52% 30.26 in 10.0 mi Variable 6.9 mph - N/A   Partly Cloudy
11:53 AM 62.1 °F 45.0 °F 53% 30.25 in 10.0 mi NW 12.7 mph 23.0 mph N/A   Partly Cloudy
12:53 PM 63.0 °F 46.0 °F 54% 30.21 in 10.0 mi WNW 15.0 mph 20.7 mph N/A   Clear
1:53 PM 64.0 °F 46.9 °F 54% 30.18 in 10.0 mi NW 13.8 mph 24.2 mph N/A   Clear
2:53 PM 64.0 °F 46.9 °F 54% 30.14 in 10.0 mi NW 18.4 mph 25.3 mph N/A   Clear
3:53 PM 64.9 °F 48.9 °F 56% 30.13 in 10.0 mi NW 12.7 mph 21.9 mph N/A   Clear
4:53 PM 64.9 °F 48.0 °F 54% 30.14 in 10.0 mi NW 10.4 mph 21.9 mph N/A   Clear
5:53 PM 62.6 °F 48.2 °F 59% 30.15 in 10.0 mi NNW 11.5 mph 17.3 mph N/A   Clear
6:53 PM 62.1 °F 48.0 °F 60% 30.16 in 10.0 mi NNW 4.6 mph - N/A   Clear
7:53 PM 60.1 °F 46.9 °F 62% 30.18 in 10.0 mi Calm Calm - N/A   Clear
8:53 PM 59.0 °F 44.1 °F 58% 30.21 in 10.0 mi NNW 3.5 mph - N/A   Clear
9:53 PM 57.0 °F 44.1 °F 62% 30.23 in 10.0 mi North 4.6 mph - N/A   Clear
10:53 PM 54.0 °F 44.1 °F 69% 30.23 in 10.0 mi Calm Calm - N/A   Clear
11:53 PM 53.1 °F 43.0 °F 69% 30.22 in 10.0 mi North 4.6 mph - N/A   Clear